Terminal Aerodrome Forecast
Issued by NWS Paducah, KY

Home | Current Version | Previous Version | Text Only | Print | Product List | Glossary On
Versions: 1 2 3 4 5 6 7 8 9 10 11 12 13 14 15 16
000
FTUS43 KPAH 191800 AAA
TAFEVV
TAF AMD
KEVV 191830Z 1919/2018 20004KT P6SM FEW035 SCT150
     FM200000 00000KT P6SM BKN150
     FM201200 23008KT P6SM SCT050=

USA.gov is the U.S. government's official web portal to all federal, state and local government web resources and services.